| time (UTC) | temp F | wind direction | speed MPH | gust MPH | rain 1hr in | rain 24hr in | rain mn in | humidity % | barometer mb |
| 20260506155043 | 56 | 5 | 4.0 | 15.0 | 0.00 | 0.00 | 0.00 | 93 | 1016.1 |
| 20260506154555 | 56 | 351 | 6.0 | 15.0 | 0.00 | 0.00 | 0.00 | 93 | 1015.8 |
| 20260506154044 | 56 | 344 | 7.0 | 15.0 | 0.00 | 0.00 | 0.00 | 93 | 1015.7 |
| 20260506153544 | 57 | 345 | 7.0 | 16.0 | 0.00 | 0.00 | 0.00 | 93 | 1015.4 |
| 20260506153111 | 57 | 9 | 10.0 | 19.0 | 0.00 | 0.00 | 0.00 | 93 | 1014.6 |
| 20260506152544 | 57 | 17 | 7.0 | 19.0 | 0.00 | 0.00 | 0.00 | 92 | 1014.7 |
| 20260506152042 | 57 | 89 | 10.0 | 19.0 | 0.00 | 0.00 | 0.00 | 91 | 1014.6 |
| 20260506151555 | 58 | 15 | 9.0 | 17.0 | 0.00 | 0.00 | 0.00 | 91 | 1014.4 |
| 20260506151046 | 58 | 24 | 8.0 | 20.0 | 0.00 | 0.00 | 0.00 | 91 | 1014.5 |
| 20260506150544 | 59 | 34 | 9.0 | 20.0 | 0.00 | 0.00 | 0.00 | 90 | 1014.3 |
| 20260506150100 | 59 | 360 | 11.0 | 19.0 | 0.00 | 0.00 | 0.00 | 90 | 1014.2 |
| 20260506145544 | 59 | 13 | 10.0 | 18.0 | 0.00 | 0.00 | 0.00 | 90 | 1013.7 |
| 20260506145043 | 59 | 5 | 9.0 | 18.0 | 0.00 | 0.00 | 0.00 | 90 | 1013.3 |
| 20260506144557 | 59 | 12 | 10.0 | 18.0 | 0.00 | 0.00 | 0.00 | 91 | 1013.2 |
| 20260506144044 | 60 | 24 | 8.0 | 16.0 | 0.00 | 0.00 | 0.00 | 91 | 1013.5 |
| 20260506143544 | 60 | 360 | 7.0 | 13.0 | 0.00 | 0.00 | 0.00 | 92 | 1013.3 |
| 20260506143054 | 60 | 20 | 8.0 | 17.0 | 0.00 | 0.00 | 0.00 | 91 | 1013.3 |
| 20260506142542 | 60 | 32 | 8.0 | 17.0 | 0.00 | 0.00 | 0.00 | 91 | 1013.3 |
| 20260506142044 | 61 | 15 | 8.0 | 17.0 | 0.00 | 0.00 | 0.00 | 92 | 1013.1 |
| 20260506141551 | 61 | 351 | 10.0 | 15.0 | 0.00 | 0.00 | 0.00 | 91 | 1013.1 |
| 20260506141043 | 61 | 11 | 7.0 | 13.0 | 0.00 | 0.00 | 0.00 | 92 | 1012.8 |
| 20260506140548 | 62 | 11 | 8.0 | 13.0 | 0.00 | 0.00 | 0.00 | 92 | 1012.5 |
| 20260506140053 | 62 | 31 | 7.0 | 14.0 | 0.00 | 0.00 | 0.00 | 92 | 1012.4 |
| 20260506135544 | 62 | 26 | 7.0 | 14.0 | 0.00 | 0.00 | 0.00 | 92 | 1012.3 |
| 20260506135042 | 62 | 355 | 9.0 | 15.0 | 0.00 | 0.00 | 0.00 | 92 | 1012.1 |
| 20260506134553 | 62 | 10 | 9.0 | 15.0 | 0.00 | 0.00 | 0.00 | 92 | 1012.1 |
| 20260506134046 | 62 | 49 | 9.0 | 16.0 | 0.00 | 0.00 | 0.00 | 92 | 1012.2 |
| 20260506133544 | 63 | 30 | 9.0 | 16.0 | 0.00 | 0.00 | 0.00 | 92 | 1012.1 |
| 20260506133054 | 63 | 19 | 10.0 | 16.0 | 0.00 | 0.00 | 0.00 | 92 | 1012.1 |
| 20260506132547 | 63 | 18 | 8.0 | 16.0 | 0.00 | 0.00 | 0.00 | 92 | 1011.9 |
| 20260506132047 | 63 | 32 | 9.0 | 14.0 | 0.00 | 0.00 | 0.00 | 92 | 1011.8 |
| 20260506131556 | 63 | 355 | 7.0 | 14.0 | 0.00 | 0.00 | 0.00 | 91 | 1011.7 |
| 20260506131044 | 64 | 11 | 7.0 | 15.0 | 0.00 | 0.00 | 0.00 | 91 | 1011.6 |
| 20260506130544 | 64 | 360 | 7.0 | 15.0 | 0.00 | 0.00 | 0.00 | 91 | 1011.5 |
| 20260506130057 | 64 | 5 | 7.0 | 15.0 | 0.00 | 0.00 | 0.00 | 91 | 1011.5 |
| 20260506125543 | 64 | 5 | 7.0 | 13.0 | 0.00 | 0.00 | 0.00 | 91 | 1011.3 |
| 20260506125042 | 65 | 5 | 8.0 | 13.0 | 0.00 | 0.00 | 0.00 | 92 | 1011.3 |
| 20260506124550 | 65 | 22 | 7.0 | 14.0 | 0.00 | 0.00 | 0.00 | 92 | 1011.3 |
| 20260506124044 | 65 | 5 | 9.0 | 14.0 | 0.00 | 0.00 | 0.00 | 92 | 1011.1 |
| 20260506123543 | 66 | 34 | 5.0 | 11.0 | 0.00 | 0.00 | 0.00 | 91 | 1011.1 |
| 20260506123056 | 67 | 38 | 5.0 | 9.0 | 0.00 | 0.00 | 0.00 | 90 | 1011.2 |
| 20260506122542 | 69 | 32 | 3.0 | 12.0 | 0.00 | 0.00 | 0.00 | 91 | 1011.0 |
| 20260506122043 | 71 | 47 | 7.0 | 12.0 | 0.00 | 0.00 | 0.00 | 91 | 1010.8 |
| 20260506121555 | 73 | 19 | 2.0 | 3.0 | 0.00 | 0.00 | 0.00 | 94 | 1010.6 |
| 20260506121043 | 73 | 0 | 0.0 | 1.0 | 0.00 | 0.00 | 0.00 | 94 | 1010.4 |
| 20260506120543 | 73 | 0 | 0.0 | 1.0 | 0.00 | 0.00 | 0.00 | 94 | 1010.4 |
| 20260506120057 | 73 | 0 | 0.0 | 1.0 | 0.00 | 0.00 | 0.00 | 94 | 1010.3 |
| 20260506115543 | 73 | 0 | 0.0 | 1.0 | 0.00 | 0.00 | 0.00 | 94 | 1010.2 |
| 20260506115042 | 73 | 0 | 0.0 | 1.0 | 0.00 | 0.00 | 0.00 | 94 | 1010.3 |
| 20260506114601 | 73 | 0 | 0.0 | 1.0 | 0.00 | 0.00 | 0.00 | 94 | 1010.3 |
| 20260506114043 | 73 | 0 | 0.0 | 1.0 | 0.00 | 0.00 | 0.00 | 94 | 1010.3 |
| 20260506113542 | 73 | 0 | 0.0 | 0.0 | 0.00 | 0.00 | 0.00 | 94 | 1010.3 |
| 20260506113048 | 73 | 0 | 0.0 | 0.0 | 0.00 | 0.00 | 0.00 | 94 | 1010.4 |
| 20260506112544 | 73 | 0 | 0.0 | 2.0 | 0.00 | 0.00 | 0.00 | 94 | 1010.2 |
| 20260506112043 | 73 | 0 | 0.0 | 2.0 | 0.00 | 0.00 | 0.00 | 94 | 1010.3 |
| 20260506111557 | 73 | 0 | 0.0 | 2.0 | 0.00 | 0.00 | 0.00 | 94 | 1010.2 |
| 20260506111043 | 73 | 0 | 0.0 | 0.0 | 0.00 | 0.00 | 0.00 | 94 | 1010.2 |
| 20260506110544 | 73 | 0 | 0.0 | 0.0 | 0.00 | 0.00 | 0.00 | 94 | 1010.2 |
| 20260506110054 | 73 | 0 | 0.0 | 1.0 | 0.00 | 0.00 | 0.00 | 94 | 1010.3 |
| 20260506105547 | 73 | 0 | 0.0 | 1.0 | 0.00 | 0.00 | 0.00 | 94 | 1010.1 |
| 20260506105048 | 73 | 0 | 0.0 | 1.0 | 0.00 | 0.00 | 0.00 | 94 | 1010.3 |
| 20260506104559 | 73 | 0 | 0.0 | 2.0 | 0.00 | 0.00 | 0.00 | 94 | 1010.2 |
| 20260506104043 | 73 | 0 | 0.0 | 2.0 | 0.00 | 0.00 | 0.00 | 94 | 1010.1 |
| 20260506103542 | 73 | 0 | 0.0 | 2.0 | 0.00 | 0.00 | 0.00 | 94 | 1010.0 |
| 20260506103058 | 73 | 91 | 0.0 | 2.0 | 0.00 | 0.00 | 0.00 | 94 | 1009.9 |
| 20260506102543 | 73 | 91 | 0.0 | 2.0 | 0.00 | 0.00 | 0.00 | 94 | 1009.9 |
| 20260506102044 | 73 | 0 | 0.0 | 1.0 | 0.00 | 0.00 | 0.00 | 94 | 1010.0 |
| 20260506101550 | 73 | 0 | 0.0 | 1.0 | 0.00 | 0.00 | 0.00 | 94 | 1009.8 |
| 20260506101044 | 73 | 0 | 0.0 | 1.0 | 0.00 | 0.00 | 0.00 | 94 | 1009.6 |
| 20260506100546 | 73 | 0 | 0.0 | 1.0 | 0.00 | 0.00 | 0.00 | 94 | 1009.6 |
| 20260506100050 | 73 | 0 | 0.0 | 1.0 | 0.00 | 0.00 | 0.00 | 94 | 1009.6 |
| 20260506095543 | 73 | 0 | 0.0 | 1.0 | 0.00 | 0.00 | 0.00 | 94 | 1009.5 |
| 20260506095043 | 73 | 0 | 0.0 | 2.0 | 0.00 | 0.00 | 0.00 | 94 | 1009.5 |
| 20260506094554 | 73 | 0 | 0.0 | 2.0 | 0.00 | 0.00 | 0.00 | 93 | 1009.5 |
| 20260506094043 | 73 | 0 | 0.0 | 3.0 | 0.00 | 0.00 | 0.00 | 93 | 1009.4 |
| 20260506093543 | 73 | 0 | 0.0 | 3.0 | 0.00 | 0.00 | 0.00 | 93 | 1009.4 |
| 20260506093051 | 74 | 227 | 1.0 | 3.0 | 0.00 | 0.00 | 0.00 | 93 | 1009.2 |
| 20260506092544 | 74 | 227 | 1.0 | 5.0 | 0.00 | 0.00 | 0.00 | 93 | 1009.2 |
| 20260506092043 | 74 | 229 | 1.0 | 5.0 | 0.00 | 0.00 | 0.00 | 93 | 1009.0 |
| 20260506091555 | 74 | 210 | 2.0 | 4.0 | 0.00 | 0.00 | 0.00 | 92 | 1009.1 |
| 20260506091044 | 74 | 239 | 1.0 | 4.0 | 0.00 | 0.00 | 0.00 | 92 | 1009.1 |
| 20260506090546 | 74 | 191 | 2.0 | 4.0 | 0.00 | 0.00 | 0.00 | 92 | 1009.2 |
| 20260506090059 | 74 | 202 | 1.0 | 4.0 | 0.00 | 0.00 | 0.00 | 91 | 1009.3 |
| 20260506085544 | 74 | 213 | 2.0 | 4.0 | 0.00 | 0.00 | 0.00 | 91 | 1009.1 |
| 20260506085042 | 74 | 219 | 2.0 | 7.0 | 0.00 | 0.00 | 0.00 | 91 | 1009.2 |
| 20260506084550 | 74 | 217 | 3.0 | 7.0 | 0.00 | 0.00 | 0.00 | 91 | 1009.1 |
| 20260506084042 | 74 | 236 | 1.0 | 5.0 | 0.00 | 0.00 | 0.00 | 91 | 1009.1 |
| 20260506083542 | 74 | 228 | 1.0 | 6.0 | 0.00 | 0.00 | 0.00 | 91 | 1009.1 |
| 20260506083050 | 74 | 228 | 2.0 | 6.0 | 0.00 | 0.00 | 0.00 | 91 | 1009.1 |
| 20260506082543 | 74 | 220 | 3.0 | 6.0 | 0.00 | 0.00 | 0.00 | 91 | 1009.1 |
| 20260506082043 | 75 | 244 | 2.0 | 7.0 | 0.00 | 0.00 | 0.00 | 90 | 1009.1 |
| 20260506081549 | 75 | 247 | 4.0 | 11.0 | 0.00 | 0.00 | 0.00 | 90 | 1009.0 |
| 20260506081043 | 75 | 201 | 4.0 | 11.0 | 0.00 | 0.00 | 0.00 | 90 | 1009.0 |
| 20260506080546 | 75 | 228 | 3.0 | 10.0 | 0.00 | 0.00 | 0.00 | 90 | 1009.0 |
| 20260506073050 | 75 | 240 | 2.0 | 7.0 | 0.00 | 0.00 | 0.00 | 89 | 1009.5 |
| 20260506072542 | 75 | 209 | 2.0 | 7.0 | 0.00 | 0.00 | 0.00 | 89 | 1009.6 |
| 20260506072043 | 75 | 208 | 2.0 | 7.0 | 0.00 | 0.00 | 0.00 | 89 | 1009.6 |
| 20260506071603 | 75 | 196 | 4.0 | 8.0 | 0.00 | 0.00 | 0.00 | 89 | 1009.6 |
| 20260506071044 | 75 | 198 | 3.0 | 8.0 | 0.00 | 0.00 | 0.00 | 89 | 1009.6 |
| 20260506070542 | 75 | 192 | 4.0 | 7.0 | 0.00 | 0.00 | 0.00 | 89 | 1009.6 |
| 20260506062044 | 74 | 184 | 3.0 | 9.0 | 0.00 | 0.00 | 0.00 | 91 | 1009.2 |
| 20260506061549 | 74 | 240 | 3.0 | 9.0 | 0.00 | 0.00 | 0.00 | 91 | 1009.1 |
| 20260506061043 | 74 | 193 | 3.0 | 9.0 | 0.00 | 0.00 | 0.00 | 91 | 1009.1 |
| 20260506060543 | 74 | 209 | 3.0 | 8.0 | 0.00 | 0.00 | 0.00 | 91 | 1009.0 |
| 20260506051043 | 74 | 218 | 3.0 | 8.0 | 0.00 | 0.00 | 0.00 | 91 | 1008.9 |
| 20260506050543 | 74 | 247 | 3.0 | 8.0 | 0.00 | 0.00 | 0.00 | 91 | 1008.9 |
| 20260506050105 | 74 | 216 | 3.0 | 6.0 | 0.00 | 0.00 | 0.00 | 91 | 1008.8 |
| 20260506045042 | 74 | 5 | 1.0 | 5.0 | 0.00 | 0.00 | 0.00 | 90 | 1008.8 |
| 20260506044554 | 74 | 150 | 2.0 | 5.0 | 0.00 | 0.00 | 0.00 | 90 | 1009.0 |
| 20260506044042 | 74 | 214 | 0.0 | 8.0 | 0.00 | 0.00 | 0.00 | 90 | 1008.9 |
| 20260506043544 | 74 | 191 | 1.0 | 8.0 | 0.00 | 0.00 | 0.00 | 90 | 1009.0 |
| 20260506043051 | 74 | 217 | 3.0 | 7.0 | 0.00 | 0.00 | 0.00 | 90 | 1009.0 |
| 20260506042544 | 74 | 188 | 2.0 | 7.0 | 0.00 | 0.00 | 0.00 | 90 | 1008.8 |
| 20260506042045 | 74 | 203 | 2.0 | 9.0 | 0.00 | 0.00 | 0.00 | 90 | 1008.8 |
| 20260506041558 | 74 | 216 | 2.0 | 9.0 | 0.00 | 0.00 | 0.00 | 90 | 1008.7 |
| 20260506041044 | 74 | 253 | 2.0 | 7.0 | 0.00 | 0.00 | 0.00 | 90 | 1008.8 |
| 20260506040544 | 74 | 215 | 2.0 | 7.0 | 0.00 | 0.00 | 0.00 | 90 | 1008.7 |
| 20260506040056 | 74 | 207 | 2.0 | 7.0 | 0.00 | 0.00 | 0.00 | 90 | 1008.7 |
| 20260506035545 | 74 | 195 | 1.0 | 4.0 | 0.00 | 0.00 | 0.00 | 90 | 1008.6 |
| 20260506035045 | 75 | 205 | 1.0 | 5.0 | 0.00 | 0.00 | 0.00 | 90 | 1008.7 |
| 20260506034600 | 75 | 220 | 1.0 | 5.0 | 0.00 | 0.00 | 0.00 | 89 | 1008.6 |
| 20260506034045 | 75 | 208 | 2.0 | 6.0 | 0.00 | 0.00 | 0.00 | 89 | 1008.4 |
| 20260506033546 | 75 | 236 | 2.0 | 6.0 | 0.00 | 0.00 | 0.00 | 89 | 1008.3 |
| 20260506033053 | 75 | 200 | 2.0 | 7.0 | 0.00 | 0.00 | 0.00 | 89 | 1008.4 |
| 20260506032550 | 75 | 219 | 1.0 | 7.0 | 0.00 | 0.00 | 0.00 | 88 | 1008.3 |
| 20260506032049 | 75 | 217 | 2.0 | 6.0 | 0.00 | 0.00 | 0.00 | 88 | 1008.2 |
| 20260506031549 | 75 | 196 | 1.0 | 4.0 | 0.00 | 0.00 | 0.00 | 88 | 1008.2 |
| 20260506031047 | 75 | 179 | 2.0 | 4.0 | 0.00 | 0.00 | 0.00 | 88 | 1008.0 |
| 20260506030545 | 75 | 215 | 2.0 | 4.0 | 0.00 | 0.00 | 0.00 | 88 | 1007.9 |
| 20260506030050 | 75 | 207 | 1.0 | 4.0 | 0.00 | 0.00 | 0.00 | 87 | 1007.8 |
| 20260506025546 | 76 | 200 | 1.0 | 4.0 | 0.00 | 0.00 | 0.00 | 87 | 1007.7 |
| 20260506025044 | 76 | 211 | 1.0 | 4.0 | 0.00 | 0.00 | 0.00 | 87 | 1007.7 |
| 20260506024607 | 76 | 171 | 1.0 | 4.0 | 0.00 | 0.00 | 0.00 | 86 | 1007.5 |
| 20260506024045 | 76 | 0 | 1.0 | 2.0 | 0.00 | 0.00 | 0.00 | 86 | 1007.5 |
| 20260506023548 | 76 | 0 | 0.0 | 5.0 | 0.00 | 0.00 | 0.00 | 86 | 1007.3 |
| 20260506023056 | 76 | 229 | 1.0 | 5.0 | 0.00 | 0.00 | 0.00 | 86 | 1007.3 |
| 20260506022545 | 76 | 199 | 1.0 | 4.0 | 0.00 | 0.00 | 0.00 | 86 | 1007.2 |
| 20260506022045 | 76 | 224 | 1.0 | 4.0 | 0.00 | 0.00 | 0.00 | 86 | 1007.2 |
| 20260506021553 | 76 | 221 | 1.0 | 4.0 | 0.00 | 0.00 | 0.00 | 85 | 1007.2 |
| 20260506021044 | 76 | 223 | 1.0 | 4.0 | 0.00 | 0.00 | 0.00 | 85 | 1007.0 |
| 20260506020548 | 77 | 223 | 2.0 | 4.0 | 0.00 | 0.00 | 0.00 | 85 | 1007.0 |
| 20260506020052 | 77 | 221 | 1.0 | 5.0 | 0.00 | 0.00 | 0.00 | 84 | 1007.0 |
| 20260506015548 | 77 | 209 | 1.0 | 5.0 | 0.00 | 0.00 | 0.00 | 84 | 1006.9 |
| 20260506015042 | 77 | 200 | 1.0 | 5.0 | 0.00 | 0.00 | 0.00 | 84 | 1006.8 |
| 20260506014554 | 77 | 203 | 1.0 | 6.0 | 0.00 | 0.00 | 0.00 | 83 | 1006.6 |
| 20260506014047 | 77 | 216 | 2.0 | 6.0 | 0.00 | 0.00 | 0.00 | 83 | 1006.6 |
| 20260506013548 | 78 | 182 | 2.0 | 6.0 | 0.00 | 0.00 | 0.00 | 82 | 1006.5 |
| 20260506013104 | 78 | 216 | 2.0 | 6.0 | 0.00 | 0.00 | 0.00 | 82 | 1006.5 |
| 20260506012544 | 78 | 217 | 1.0 | 6.0 | 0.00 | 0.00 | 0.00 | 82 | 1006.6 |
| 20260506012045 | 78 | 206 | 0.0 | 7.0 | 0.00 | 0.00 | 0.00 | 81 | 1006.7 |
| 20260506011605 | 79 | 202 | 2.0 | 7.0 | 0.00 | 0.00 | 0.00 | 81 | 1006.6 |
| 20260506011045 | 79 | 233 | 3.0 | 8.0 | 0.00 | 0.00 | 0.00 | 81 | 1006.5 |
| 20260506010545 | 79 | 196 | 3.0 | 8.0 | 0.00 | 0.00 | 0.00 | 81 | 1006.4 |
| 20260506010055 | 79 | 234 | 3.0 | 6.0 | 0.00 | 0.00 | 0.00 | 80 | 1006.5 |
| 20260506005543 | 80 | 0 | 1.0 | 6.0 | 0.00 | 0.00 | 0.00 | 80 | 1006.4 |
| 20260506005045 | 80 | 0 | 1.0 | 6.0 | 0.00 | 0.00 | 0.00 | 79 | 1006.4 |
| 20260506004559 | 80 | 219 | 2.0 | 8.0 | 0.00 | 0.00 | 0.00 | 79 | 1006.5 |
| 20260506004045 | 80 | 238 | 3.0 | 8.0 | 0.00 | 0.00 | 0.00 | 79 | 1006.4 |
| 20260506003545 | 80 | 219 | 3.0 | 8.0 | 0.00 | 0.00 | 0.00 | 78 | 1006.4 |
| 20260506003050 | 81 | 196 | 3.0 | 7.0 | 0.00 | 0.00 | 0.00 | 78 | 1006.5 |
| 20260506002546 | 81 | 211 | 3.0 | 7.0 | 0.00 | 0.00 | 0.00 | 78 | 1006.5 |
| 20260506002045 | 81 | 193 | 2.0 | 9.0 | 0.00 | 0.00 | 0.00 | 78 | 1006.6 |
| 20260506001557 | 81 | 220 | 2.0 | 9.0 | 0.00 | 0.00 | 0.00 | 77 | 1006.6 |
| 20260506001045 | 81 | 204 | 4.0 | 9.0 | 0.00 | 0.00 | 0.00 | 77 | 1006.5 |
| 20260506000546 | 81 | 199 | 3.0 | 11.0 | 0.00 | 0.00 | 0.00 | 77 | 1006.5 |
| 20260506000101 | 81 | 225 | 3.0 | 11.0 | 0.00 | 0.00 | 0.00 | 77 | 1006.5 |
| 20260505235545 | 81 | 225 | 4.0 | 11.0 | 0.00 | 0.00 | 0.00 | 76 | 1006.5 |
| 20260505235045 | 81 | 182 | 4.0 | 11.0 | 0.00 | 0.00 | 0.00 | 76 | 1006.4 |
| 20260505234557 | 81 | 177 | 4.0 | 9.0 | 0.00 | 0.00 | 0.00 | 76 | 1006.6 |
| 20260505234044 | 81 | 251 | 3.0 | 8.0 | 0.00 | 0.00 | 0.00 | 76 | 1006.6 |
| 20260505233544 | 82 | 211 | 4.0 | 8.0 | 0.00 | 0.00 | 0.00 | 75 | 1006.4 |
| 20260505233059 | 82 | 209 | 4.0 | 9.0 | 0.00 | 0.00 | 0.00 | 76 | 1006.3 |
| 20260505232545 | 82 | 197 | 3.0 | 9.0 | 0.00 | 0.00 | 0.00 | 75 | 1006.2 |
| 20260505232047 | 81 | 207 | 3.0 | 8.0 | 0.00 | 0.00 | 0.00 | 76 | 1006.3 |
| 20260505231553 | 81 | 248 | 3.0 | 8.0 | 0.00 | 0.00 | 0.00 | 76 | 1006.2 |
| 20260505231047 | 82 | 201 | 2.0 | 8.0 | 0.00 | 0.00 | 0.00 | 76 | 1006.3 |
| 20260505230545 | 82 | 203 | 4.0 | 10.0 | 0.00 | 0.00 | 0.00 | 75 | 1006.2 |
| 20260505230104 | 82 | 206 | 4.0 | 10.0 | 0.00 | 0.00 | 0.00 | 74 | 1006.2 |
| 20260505225548 | 82 | 161 | 3.0 | 10.0 | 0.00 | 0.00 | 0.00 | 75 | 1006.3 |
| 20260505225045 | 82 | 202 | 5.0 | 10.0 | 0.00 | 0.00 | 0.00 | 74 | 1006.3 |
| 20260505224553 | 82 | 236 | 4.0 | 11.0 | 0.00 | 0.00 | 0.00 | 74 | 1006.2 |
| 20260505224046 | 82 | 172 | 5.0 | 11.0 | 0.00 | 0.00 | 0.00 | 74 | 1006.2 |
| 20260505223545 | 82 | 213 | 4.0 | 13.0 | 0.00 | 0.00 | 0.00 | 76 | 1006.2 |
| 20260505223108 | 82 | 227 | 4.0 | 13.0 | 0.00 | 0.00 | 0.00 | 75 | 1006.1 |
| 20260505222544 | 82 | 190 | 5.0 | 11.0 | 0.00 | 0.00 | 0.00 | 74 | 1006.1 |
| 20260505222045 | 82 | 202 | 5.0 | 12.0 | 0.00 | 0.00 | 0.00 | 74 | 1006.1 |
| 20260505221553 | 83 | 233 | 4.0 | 12.0 | 0.00 | 0.00 | 0.00 | 74 | 1006.1 |
| 20260505221047 | 83 | 202 | 5.0 | 9.0 | 0.00 | 0.00 | 0.00 | 73 | 1006.0 |
| 20260505220544 | 82 | 209 | 4.0 | 10.0 | 0.00 | 0.00 | 0.00 | 73 | 1006.0 |
| 20260505220053 | 83 | 188 | 4.0 | 11.0 | 0.00 | 0.00 | 0.00 | 73 | 1006.2 |
| 20260505215545 | 83 | 220 | 4.0 | 11.0 | 0.00 | 0.00 | 0.00 | 72 | 1006.3 |
| 20260505215044 | 83 | 278 | 4.0 | 10.0 | 0.00 | 0.00 | 0.00 | 72 | 1006.3 |
| 20260505214557 | 83 | 221 | 5.0 | 11.0 | 0.00 | 0.00 | 0.00 | 72 | 1006.4 |
| 20260505214045 | 83 | 244 | 5.0 | 13.0 | 0.00 | 0.00 | 0.00 | 72 | 1006.5 |
| 20260505213548 | 82 | 216 | 6.0 | 13.0 | 0.00 | 0.00 | 0.00 | 73 | 1006.5 |
| 20260505213100 | 83 | 231 | 6.0 | 12.0 | 0.00 | 0.00 | 0.00 | 72 | 1006.6 |
| 20260505212545 | 83 | 223 | 5.0 | 12.0 | 0.00 | 0.00 | 0.00 | 73 | 1006.7 |
| 20260505212045 | 83 | 217 | 5.0 | 11.0 | 0.00 | 0.00 | 0.00 | 72 | 1006.6 |
| 20260505211556 | 83 | 224 | 4.0 | 10.0 | 0.00 | 0.00 | 0.00 | 74 | 1006.6 |
| 20260505211045 | 83 | 204 | 4.0 | 12.0 | 0.00 | 0.00 | 0.00 | 74 | 1006.7 |
| 20260505210544 | 83 | 259 | 6.0 | 12.0 | 0.00 | 0.00 | 0.00 | 73 | 1006.7 |
| 20260505210057 | 83 | 225 | 4.0 | 10.0 | 0.00 | 0.00 | 0.00 | 74 | 1006.8 |
| 20260505205544 | 83 | 212 | 5.0 | 16.0 | 0.00 | 0.00 | 0.00 | 73 | 1006.8 |
| 20260505205045 | 82 | 217 | 7.0 | 16.0 | 0.00 | 0.00 | 0.00 | 74 | 1006.9 |
| 20260505204601 | 82 | 217 | 5.0 | 16.0 | 0.00 | 0.00 | 0.00 | 73 | 1006.9 |
| 20260505204044 | 82 | 254 | 7.0 | 14.0 | 0.00 | 0.00 | 0.00 | 73 | 1007.0 |
| 20260505203544 | 83 | 200 | 6.0 | 14.0 | 0.00 | 0.00 | 0.00 | 74 | 1007.1 |
| 20260505203054 | 83 | 221 | 6.0 | 14.0 | 0.00 | 0.00 | 0.00 | 72 | 1007.0 |
| 20260505202543 | 83 | 219 | 5.0 | 14.0 | 0.00 | 0.00 | 0.00 | 73 | 1007.0 |
| 20260505202044 | 82 | 215 | 6.0 | 16.0 | 0.00 | 0.00 | 0.00 | 73 | 1007.1 |
| 20260505201551 | 82 | 230 | 6.0 | 16.0 | 0.00 | 0.00 | 0.00 | 73 | 1007.3 |
| 20260505201045 | 83 | 235 | 7.0 | 12.0 | 0.00 | 0.00 | 0.00 | 71 | 1007.3 |
| 20260505200544 | 83 | 195 | 5.0 | 11.0 | 0.00 | 0.00 | 0.00 | 73 | 1007.3 |
| 20260505200051 | 83 | 192 | 6.0 | 11.0 | 0.00 | 0.00 | 0.00 | 72 | 1007.3 |
| 20260505195547 | 83 | 199 | 6.0 | 13.0 | 0.00 | 0.00 | 0.00 | 71 | 1007.3 |
| 20260505195044 | 83 | 190 | 6.0 | 13.0 | 0.00 | 0.00 | 0.00 | 71 | 1007.4 |
| 20260505194605 | 83 | 206 | 6.0 | 10.0 | 0.00 | 0.00 | 0.00 | 71 | 1007.4 |
| 20260505194044 | 84 | 208 | 3.0 | 11.0 | 0.00 | 0.00 | 0.00 | 71 | 1007.4 |
| 20260505193545 | 83 | 220 | 5.0 | 11.0 | 0.00 | 0.00 | 0.00 | 73 | 1007.6 |
| 20260505193049 | 83 | 197 | 4.0 | 10.0 | 0.00 | 0.00 | 0.00 | 72 | 1007.6 |
| 20260505192544 | 82 | 239 | 4.0 | 11.0 | 0.00 | 0.00 | 0.00 | 74 | 1007.8 |
| 20260505192044 | 82 | 238 | 6.0 | 11.0 | 0.00 | 0.00 | 0.00 | 72 | 1007.9 |
| 20260505191559 | 82 | 221 | 5.0 | 9.0 | 0.00 | 0.00 | 0.00 | 72 | 1008.0 |
| 20260505191044 | 82 | 222 | 4.0 | 8.0 | 0.00 | 0.00 | 0.00 | 75 | 1007.9 |
| 20260505190543 | 81 | 188 | 4.0 | 11.0 | 0.00 | 0.00 | 0.00 | 75 | 1008.1 |
| 20260505190056 | 80 | 263 | 4.0 | 11.0 | 0.00 | 0.00 | 0.00 | 75 | 1008.2 |
| 20260505185549 | 80 | 218 | 5.0 | 11.0 | 0.00 | 0.00 | 0.00 | 74 | 1008.2 |
| 20260505185050 | 81 | 254 | 5.0 | 12.0 | 0.00 | 0.00 | 0.00 | 73 | 1008.4 |
| 20260505184553 | 81 | 219 | 6.0 | 15.0 | 0.00 | 0.00 | 0.00 | 73 | 1008.4 |
| 20260505184044 | 80 | 195 | 6.0 | 15.0 | 0.00 | 0.00 | 0.00 | 76 | 1008.5 |
| 20260505183548 | 81 | 197 | 5.0 | 12.0 | 0.00 | 0.00 | 0.00 | 76 | 1008.6 |
| 20260505183100 | 81 | 194 | 4.0 | 12.0 | 0.00 | 0.00 | 0.00 | 75 | 1008.5 |
| 20260505182544 | 79 | 216 | 7.0 | 11.0 | 0.00 | 0.00 | 0.00 | 76 | 1008.6 |
| 20260505182043 | 79 | 233 | 5.0 | 11.0 | 0.00 | 0.00 | 0.00 | 79 | 1008.8 |
| 20260505181553 | 78 | 229 | 6.0 | 11.0 | 0.00 | 0.00 | 0.00 | 78 | 1008.9 |
| 20260505181044 | 79 | 234 | 4.0 | 10.0 | 0.00 | 0.00 | 0.00 | 79 | 1008.9 |
| 20260505180543 | 78 | 265 | 5.0 | 12.0 | 0.00 | 0.00 | 0.00 | 79 | 1008.8 |
| 20260505180051 | 78 | 234 | 6.0 | 12.0 | 0.00 | 0.00 | 0.00 | 78 | 1008.8 |
| 20260505175543 | 78 | 231 | 5.0 | 11.0 | 0.00 | 0.00 | 0.00 | 80 | 1008.8 |
| 20260505175044 | 78 | 221 | 5.0 | 11.0 | 0.00 | 0.00 | 0.00 | 78 | 1009.0 |
| 20260505174558 | 78 | 234 | 6.0 | 13.0 | 0.00 | 0.00 | 0.00 | 79 | 1009.0 |
| 20260505174044 | 77 | 221 | 6.0 | 13.0 | 0.00 | 0.00 | 0.00 | 80 | 1009.0 |
| 20260505173543 | 77 | 215 | 6.0 | 11.0 | 0.00 | 0.00 | 0.00 | 80 | 1009.1 |
| 20260505173049 | 77 | 224 | 6.0 | 13.0 | 0.00 | 0.00 | 0.00 | 79 | 1009.1 |
| 20260505172545 | 77 | 225 | 7.0 | 13.0 | 0.00 | 0.00 | 0.00 | 80 | 1009.0 |
| 20260505172043 | 77 | 209 | 6.0 | 11.0 | 0.00 | 0.00 | 0.00 | 80 | 1009.0 |
| 20260505171555 | 76 | 221 | 5.0 | 13.0 | 0.00 | 0.00 | 0.00 | 81 | 1009.0 |
| 20260505171047 | 76 | 259 | 7.0 | 14.0 | 0.00 | 0.00 | 0.00 | 82 | 1009.0 |
| 20260505170543 | 76 | 224 | 5.0 | 14.0 | 0.00 | 0.00 | 0.00 | 82 | 1009.2 |
| 20260505170049 | 76 | 208 | 5.0 | 10.0 | 0.00 | 0.00 | 0.00 | 82 | 1009.2 |
| 20260505165544 | 76 | 238 | 6.0 | 11.0 | 0.00 | 0.00 | 0.00 | 82 | 1009.1 |
| 20260505165043 | 75 | 242 | 5.0 | 11.0 | 0.00 | 0.00 | 0.00 | 83 | 1009.2 |
| 20260505164600 | 75 | 233 | 6.0 | 14.0 | 0.00 | 0.00 | 0.00 | 82 | 1009.3 |
| 20260505164043 | 75 | 207 | 7.0 | 14.0 | 0.00 | 0.00 | 0.00 | 83 | 1009.2 |
| 20260505163543 | 75 | 219 | 4.0 | 10.0 | 0.00 | 0.00 | 0.00 | 83 | 1009.3 |
| 20260505163055 | 75 | 196 | 5.0 | 10.0 | 0.00 | 0.00 | 0.00 | 83 | 1009.4 |
| 20260505162547 | 75 | 236 | 5.0 | 9.0 | 0.00 | 0.00 | 0.00 | 84 | 1009.4 |
| 20260505162045 | 74 | 225 | 5.0 | 13.0 | 0.00 | 0.00 | 0.00 | 84 | 1009.4 |
| 20260505161551 | 74 | 215 | 5.0 | 13.0 | 0.00 | 0.00 | 0.00 | 84 | 1009.3 |
| 20260505161045 | 74 | 234 | 5.0 | 11.0 | 0.00 | 0.00 | 0.00 | 85 | 1009.3 |
| 20260505160544 | 74 | 230 | 5.0 | 12.0 | 0.00 | 0.00 | 0.00 | 85 | 1009.3 |